EW2971 Weather Reports


time (UTC)temp
F
wind
direction
speed
knots
gust
knots
rain 1hr
in
rain 24hr
in
rain mn
in
humidity
%
barometer
mb
20260906181043 90 292 0.0 2.6 0.00 0.02 0.02 64 1015.2
20260906180541 90 150 0.0 2.6 0.00 0.02 0.02 63 1015.2
20260906180108 90 116 0.9 2.6 0.00 0.02 0.02 63 1015.2
20260906175545 90 160 0.0 2.6 0.00 0.02 0.02 63 1015.4
20260906175044 90 0 0.0 1.7 0.00 0.02 0.02 65 1015.3
20260906174558 89 0 0.0 2.6 0.00 0.02 0.02 66 1015.4
20260906174045 89 140 0.9 4.3 0.00 0.02 0.02 66 1015.4
20260906173544 89 141 0.9 4.3 0.00 0.02 0.02 68 1015.5
20260906173101 88 0 0.0 3.5 0.00 0.02 0.02 70 1015.5
20260906172546 88 181 0.9 3.5 0.00 0.02 0.02 70 1015.5
20260906172042 88 95 0.0 3.5 0.00 0.02 0.02 70 1015.6
20260906171606 87 72 0.9 5.2 0.00 0.02 0.02 71 1015.8
20260906171041 87 141 0.0 5.2 0.00 0.02 0.02 71 1015.9
20260906170541 87 129 0.0 4.3 0.00 0.02 0.02 73 1015.8
20260906165541 86 190 0.0 4.3 0.00 0.02 0.02 75 1015.9
20260906165044 85 148 0.0 4.3 0.00 0.02 0.02 78 1016.0
20260906164559 84 68 0.9 4.3 0.00 0.02 0.02 77 1016.0
20260906164042 84 0 0.0 2.6 0.00 0.02 0.02 80 1016.1
20260906163543 83 152 0.0 3.5 0.00 0.02 0.02 81 1016.1
20260906163107 82 65 0.9 3.5 0.00 0.02 0.02 82 1016.2
20260906162541 82 0 0.0 1.7 0.00 0.02 0.02 83 1016.3
20260906162041 82 69 0.9 1.7 0.00 0.02 0.02 83 1016.4
20260906161559 81 0 0.0 0.0 0.00 0.02 0.02 86 1016.4
20260906161042 81 0 0.0 0.0 0.00 0.02 0.02 86 1016.4
20260906160542 81 0 0.0 0.0 0.00 0.02 0.02 87 1016.4
20260906160110 81 0 0.0 0.0 0.00 0.02 0.02 88 1016.6
20260906155541 80 0 0.0 0.0 0.00 0.02 0.02 88 1016.6
20260906155042 80 0 0.0 0.9 0.01 0.02 0.02 88 1016.6
20260906154605 80 0 0.0 0.9 0.02 0.02 0.02 89 1016.7
20260906154043 80 0 0.0 1.7 0.02 0.02 0.02 88 1016.7
20260906153550 80 0 0.0 1.7 0.02 0.02 0.02 87 1016.6
20260906153100 80 274 0.0 2.6 0.02 0.02 0.02 86 1016.6
20260906152546 80 0 0.0 2.6 0.02 0.02 0.02 85 1016.1
20260906152048 80 0 0.9 3.5 0.02 0.02 0.02 85 1016.0
20260906151607 80 117 0.0 3.5 0.02 0.02 0.02 86 1016.0
20260906151045 80 0 0.0 2.6 0.02 0.02 0.02 86 1015.9
20260906150546 80 0 0.9 4.3 0.02 0.02 0.02 86 1015.9
20260906145545 80 88 1.7 4.3 0.02 0.02 0.02 86 1015.9
20260906145045 81 0 0.9 6.1 0.01 0.01 0.01 86 1015.9
20260906144602 81 113 0.9 6.1 0.00 0.00 0.00 84 1015.7
20260906144045 81 103 2.6 6.1 0.00 0.00 0.00 84 1015.6
20260906143545 81 78 1.7 5.2 0.00 0.00 0.00 83 1015.7
20260906143113 80 101 1.7 5.2 0.00 0.00 0.00 84 1015.8
20260906142545 80 77 1.7 6.1 0.00 0.00 0.00 84 1015.9
20260906142046 80 68 1.7 7.0 0.00 0.00 0.00 85 1016.0
20260906141556 80 55 2.6 7.0 0.00 0.00 0.00 85 1016.0
20260906141045 80 94 2.6 7.0 0.00 0.00 0.00 85 1016.0
20260906140546 80 73 1.7 5.2 0.00 0.00 0.00 86 1016.0
20260906140106 79 117 1.7 5.2 0.00 0.00 0.00 86 1016.1
20260906135545 79 86 0.9 6.1 0.00 0.00 0.00 86 1016.1
20260906135046 79 96 1.7 6.1 0.00 0.00 0.00 86 1016.1
20260906134601 79 60 1.7 5.2 0.00 0.00 0.00 86 1016.1
20260906134045 79 116 1.7 6.1 0.00 0.00 0.00 86 1016.1
20260906133545 79 131 1.7 6.1 0.00 0.00 0.00 85 1016.1
20260906133059 80 152 1.7 4.3 0.00 0.00 0.00 85 1016.1
20260906132545 79 90 2.6 4.3 0.00 0.00 0.00 86 1016.1
20260906132046 79 104 1.7 4.3 0.00 0.00 0.00 87 1016.0
20260906131557 78 89 1.7 4.3 0.00 0.00 0.00 88 1016.1
20260906131044 78 84 0.0 2.6 0.00 0.00 0.00 88 1016.0
20260906130547 77 0 0.0 2.6 0.00 0.00 0.00 89 1016.1
20260906130104 77 0 0.0 4.3 0.00 0.00 0.00 89 1016.0
20260906125545 77 75 0.9 4.3 0.00 0.00 0.00 89 1015.9
20260906125045 77 122 0.9 3.5 0.00 0.00 0.00 89 1015.9
20260906124603 76 82 0.0 2.6 0.00 0.00 0.00 90 1015.7
20260906124045 76 0 0.0 0.0 0.00 0.00 0.00 90 1015.7
20260906123545 76 0 0.0 0.0 0.00 0.00 0.00 90 1015.7
20260906123059 76 0 0.0 0.0 0.00 0.00 0.00 91 1015.7
20260906122545 76 0 0.0 0.0 0.00 0.00 0.00 91 1015.5
20260906122043 75 0 0.0 0.0 0.00 0.00 0.00 91 1015.4
20260906121558 75 0 0.0 0.0 0.00 0.00 0.00 91 1015.5
20260906121043 75 0 0.0 0.0 0.00 0.00 0.00 91 1015.4
20260906120545 75 0 0.0 0.0 0.00 0.00 0.00 91 1015.4
20260906120114 75 0 0.0 1.7 0.00 0.00 0.00 91 1015.3
20260906115545 75 0 0.0 1.7 0.00 0.00 0.00 90 1015.2
20260906115044 75 116 0.0 0.9 0.00 0.00 0.00 90 1015.0
20260906114558 75 0 0.0 1.7 0.00 0.00 0.00 90 1015.0
20260906114044 75 0 0.0 1.7 0.00 0.00 0.00 90 1014.9
20260906113545 75 79 0.0 1.7 0.00 0.00 0.00 90 1015.0
20260906113100 76 63 0.0 1.7 0.00 0.00 0.00 90 1014.9
20260906112544 76 0 0.0 1.7 0.00 0.00 0.00 90 1015.0
20260906112045 76 119 0.0 1.7 0.00 0.00 0.00 90 1014.9
20260906111608 76 0 0.0 0.9 0.00 0.00 0.00 90 1015.1
20260906111045 76 0 0.0 0.0 0.00 0.00 0.00 90 1015.2
20260906110543 76 0 0.0 0.0 0.00 0.00 0.00 90 1015.2
20260906110058 76 0 0.0 0.9 0.00 0.00 0.00 89 1015.2
20260906105543 76 0 0.0 0.9 0.00 0.00 0.00 89 1015.0
20260906105045 76 0 0.0 0.9 0.00 0.00 0.00 89 1015.0
20260906104558 76 0 0.0 0.9 0.00 0.00 0.00 89 1014.9
20260906104045 76 0 0.0 0.9 0.00 0.00 0.00 89 1014.8
20260906103546 76 0 0.0 0.0 0.00 0.00 0.00 89 1014.7
20260906103056 76 0 0.0 0.0 0.00 0.00 0.00 89 1014.6
20260906102545 76 0 0.0 0.0 0.00 0.00 0.00 89 1014.6
20260906102046 76 0 0.0 0.9 0.00 0.00 0.00 89 1014.6
20260906101558 76 0 0.0 0.9 0.00 0.00 0.00 89 1014.5
20260906101043 76 0 0.0 0.9 0.00 0.00 0.00 89 1014.6
20260906100544 76 0 0.0 0.9 0.00 0.00 0.00 89 1014.5
20260906100058 76 0 0.0 0.0 0.00 0.00 0.00 89 1014.6
20260906095543 76 0 0.0 0.0 0.00 0.00 0.00 89 1014.5
20260906095043 76 0 0.0 0.0 0.00 0.00 0.00 89 1014.6
20260906094557 76 0 0.0 0.9 0.00 0.00 0.00 89 1014.5
20260906094042 76 0 0.0 0.9 0.00 0.00 0.00 88 1014.5
20260906093545 76 0 0.0 0.0 0.00 0.00 0.00 88 1014.6
20260906093100 76 0 0.0 0.0 0.00 0.00 0.00 88 1014.6
20260906092545 76 0 0.0 0.0 0.00 0.00 0.00 88 1014.6
20260906092046 76 0 0.0 0.0 0.00 0.00 0.00 89 1014.6
20260906091605 76 0 0.0 0.0 0.00 0.00 0.00 89 1014.5
20260906091047 76 0 0.0 0.0 0.00 0.00 0.00 88 1014.4
20260906090543 76 0 0.0 0.0 0.00 0.00 0.00 88 1014.5
20260906085543 76 0 0.0 0.9 0.00 0.00 0.00 88 1014.5
20260906085041 76 0 0.0 0.9 0.00 0.00 0.00 88 1014.6
20260906084605 76 132 0.0 0.9 0.00 0.00 0.00 88 1014.5
20260906084046 76 0 0.0 0.0 0.00 0.00 0.00 88 1014.4
20260906083544 76 0 0.0 0.0 0.00 0.00 0.00 88 1014.4
20260906083101 76 0 0.0 0.0 0.00 0.00 0.00 87 1014.4
20260906082541 77 0 0.0 0.0 0.00 0.00 0.00 87 1014.4
20260906082043 77 0 0.0 0.0 0.00 0.00 0.00 87 1014.3
20260906081603 77 0 0.0 0.0 0.00 0.00 0.00 86 1014.4
20260906081041 77 0 0.0 0.0 0.00 0.00 0.00 86 1014.4
20260906080542 77 0 0.0 0.0 0.00 0.00 0.00 86 1014.3
20260906080109 77 0 0.0 0.0 0.00 0.00 0.00 86 1014.3
20260906075540 77 0 0.0 0.0 0.00 0.00 0.00 86 1014.2
20260906075044 77 0 0.0 0.0 0.00 0.00 0.00 86 1014.1
20260906074600 77 0 0.0 0.0 0.00 0.00 0.00 86 1014.2
20260906074042 77 0 0.0 0.0 0.00 0.00 0.00 85 1014.4
20260906073542 77 0 0.0 0.9 0.00 0.00 0.00 85 1014.4
20260906073059 77 0 0.0 0.9 0.00 0.00 0.00 85 1014.3
20260906072541 78 0 0.0 2.6 0.00 0.00 0.00 85 1014.4
20260906072042 78 114 0.0 2.6 0.00 0.00 0.00 85 1014.3
20260906071604 78 0 0.0 1.7 0.00 0.00 0.00 85 1014.3
20260906071043 78 0 0.0 2.6 0.00 0.00 0.00 85 1014.4
20260906070540 78 128 0.0 2.6 0.00 0.00 0.00 84 1014.4
20260906070058 78 123 0.0 2.6 0.00 0.00 0.00 85 1014.4
20260906065543 78 0 0.0 0.9 0.00 0.00 0.00 85 1014.5
20260906065044 78 0 0.0 0.9 0.00 0.00 0.00 84 1014.6
20260906064555 78 122 0.0 0.0 0.00 0.00 0.00 85 1014.6
20260906064041 78 0 0.0 0.0 0.00 0.00 0.00 84 1014.6
20260906063541 78 0 0.0 0.0 0.00 0.00 0.00 84 1014.7
20260906063059 78 0 0.0 0.0 0.00 0.00 0.00 84 1014.7
20260906062546 79 0 0.0 0.0 0.00 0.00 0.00 84 1014.7
20260906062043 79 0 0.0 0.0 0.00 0.00 0.00 83 1014.8
20260906061559 79 0 0.0 0.0 0.00 0.00 0.00 83 1014.7
20260906061042 79 0 0.0 0.0 0.00 0.00 0.00 83 1014.7
20260906060543 79 0 0.0 0.0 0.00 0.00 0.00 82 1014.6
20260906060059 79 0 0.0 0.0 0.00 0.00 0.00 82 1014.6
20260906055542 80 0 0.0 0.0 0.00 0.00 0.00 82 1014.7
20260906055045 80 0 0.0 0.0 0.00 0.00 0.00 81 1014.7
20260906054602 80 0 0.0 0.0 0.00 0.00 0.00 81 1014.6
20260906054045 80 0 0.0 0.0 0.00 0.00 0.00 81 1014.5
20260906053544 80 0 0.0 1.7 0.00 0.00 0.00 81 1014.6
20260906053058 80 0 0.0 2.6 0.00 0.00 0.00 80 1014.7
20260906052546 81 0 0.0 2.6 0.00 0.00 0.00 80 1014.7
20260906052045 81 127 0.0 0.9 0.00 0.00 0.00 80 1014.8
20260906051607 81 0 0.0 0.0 0.00 0.00 0.00 80 1014.7
20260906051044 81 0 0.0 0.0 0.00 0.00 0.00 80 1014.7
20260906050545 81 0 0.0 0.0 0.00 0.00 0.00 79 1014.7
20260906050057 81 0 0.0 0.0 0.00 0.00 0.00 79 1014.7
20260906045547 81 0 0.0 0.0 0.00 0.00 0.00 79 1014.7
20260906045049 81 0 0.0 0.0 0.00 0.00 0.00 79 1014.7
20260906044553 81 0 0.0 0.0 0.00 0.00 0.00 79 1014.6
20260906044045 81 0 0.0 0.0 0.00 0.00 0.00 79 1014.6
20260906043542 82 0 0.0 0.0 0.00 0.00 0.00 79 1014.6
20260906043056 82 0 0.0 0.0 0.00 0.00 0.00 78 1014.7
20260906042545 82 0 0.0 0.0 0.00 0.00 0.00 78 1014.9
20260906042043 82 0 0.0 0.0 0.00 0.00 0.00 78 1014.7
20260906041557 82 0 0.0 0.0 0.00 0.00 0.00 77 1014.7
20260906041044 83 0 0.0 0.9 0.00 0.00 0.00 77 1014.7
20260906040544 83 0 0.0 2.6 0.00 0.00 0.00 77 1014.7
20260906040054 83 0 0.0 2.6 0.00 0.00 0.00 77 1014.7
20260906035544 83 70 0.0 2.6 0.00 0.00 0.00 77 1014.7
20260906035048 83 0 0.0 1.7 0.00 0.00 0.00 77 1014.6
20260906034559 83 0 0.0 1.7 0.00 0.00 0.00 77 1014.7
20260906034045 83 0 0.0 1.7 0.00 0.00 0.00 77 1014.7
20260906033543 83 0 0.0 1.7 0.00 0.00 0.00 77 1014.5
20260906033056 83 0 0.0 0.0 0.00 0.00 0.00 77 1014.5
20260906032543 83 0 0.0 0.0 0.00 0.00 0.00 77 1014.5
20260906032043 83 0 0.0 0.9 0.00 0.00 0.00 77 1014.5
20260906031600 84 0 0.0 0.9 0.00 0.00 0.00 76 1014.4
20260906031044 84 0 0.0 0.9 0.00 0.00 0.00 76 1014.3
20260906030545 84 72 0.0 1.7 0.00 0.00 0.00 76 1014.0
20260906030116 84 0 0.0 3.5 0.00 0.00 0.00 76 1013.9
20260906025542 84 82 0.9 3.5 0.00 0.00 0.00 76 1013.9
20260906025044 84 75 0.0 3.5 0.00 0.00 0.00 76 1013.9
20260906024627 84 72 0.9 3.5 0.00 0.00 0.00 76 1013.9
20260906024043 84 0 0.0 0.0 0.00 0.00 0.00 76 1013.8
20260906023543 84 0 0.0 0.0 0.00 0.00 0.00 76 1013.7
20260906023059 84 0 0.0 0.0 0.00 0.00 0.00 76 1013.8
20260906022547 85 0 0.0 0.0 0.00 0.00 0.00 76 1013.8
20260906022043 85 0 0.0 0.0 0.00 0.00 0.00 75 1013.6
20260906021612 85 0 0.0 0.0 0.00 0.00 0.00 76 1013.5
20260906021043 85 0 0.0 0.0 0.00 0.00 0.00 75 1013.4
20260906020544 85 0 0.0 0.0 0.00 0.00 0.00 75 1013.2
20260906020057 85 0 0.0 0.0 0.00 0.00 0.00 75 1013.1
20260906015543 85 0 0.0 0.0 0.00 0.00 0.00 75 1013.1
20260906015045 85 0 0.0 0.0 0.00 0.00 0.00 74 1013.1
20260906014609 86 0 0.0 0.0 0.00 0.00 0.00 73 1013.0
20260906014044 86 0 0.0 0.0 0.00 0.00 0.00 73 1012.9
20260906013544 86 0 0.0 0.9 0.00 0.00 0.00 73 1012.8
20260906013102 86 0 0.0 1.7 0.00 0.00 0.00 73 1012.8
20260906012544 86 73 0.0 1.7 0.00 0.00 0.00 73 1012.8
20260906012046 87 0 0.0 1.7 0.00 0.00 0.00 73 1012.7
20260906011602 87 0 0.0 1.7 0.00 0.00 0.00 73 1012.6
20260906011045 87 0 0.0 0.9 0.00 0.00 0.00 73 1012.5
20260906010543 87 0 0.0 0.0 0.00 0.00 0.00 73 1012.5
20260906010111 87 0 0.0 0.0 0.00 0.00 0.00 73 1012.5
20260906005546 87 0 0.0 0.9 0.00 0.00 0.00 72 1012.5
20260906005043 88 0 0.0 1.7 0.00 0.00 0.00 71 1012.4
20260906004607 88 0 0.0 1.7 0.00 0.00 0.00 70 1012.4
20260906004044 89 0 0.0 1.7 0.00 0.00 0.00 69 1012.3
20260906003544 89 75 0.0 2.6 0.00 0.00 0.00 68 1012.3
20260906003121 89 0 0.9 2.6 0.00 0.00 0.00 68 1012.3
20260906002543 90 91 1.7 2.6 0.00 0.00 0.00 67 1012.3
20260906002046 90 71 0.9 2.6 0.00 0.00 0.00 67 1012.2
20260906001615 90 77 0.0 3.5 0.00 0.00 0.00 66 1012.2
20260906001043 90 0 0.0 3.5 0.00 0.00 0.00 66 1012.2
20260906000545 91 0 0.0 3.5 0.00 0.00 0.00 66 1012.3
20260906000109 91 82 0.9 3.5 0.00 0.00 0.00 65 1012.2
20260905235543 91 110 1.7 4.3 0.00 0.00 0.00 64 1012.3
20260905235043 91 86 0.9 5.2 0.00 0.00 0.00 64 1012.1
20260905234608 91 101 2.6 5.2 0.00 0.00 0.00 64 1012.2
20260905234046 92 92 0.9 5.2 0.00 0.00 0.00 63 1012.2
20260905233545 92 79 0.9 4.3 0.00 0.00 0.00 63 1012.2
20260905233101 92 96 1.7 4.3 0.00 0.00 0.00 63 1012.2
20260905232543 92 102 0.9 4.3 0.00 0.00 0.00 62 1012.1
20260905232045 92 74 1.7 4.3 0.00 0.00 0.00 63 1012.2
20260905231558 92 79 0.9 6.1 0.00 0.00 0.00 63 1012.2
20260905231043 92 0 0.0 6.1 0.00 0.00 0.00 63 1012.1
20260905230548 92 62 1.7 8.7 0.00 0.00 0.00 62 1012.2
20260905230100 92 55 2.6 8.7 0.00 0.00 0.00 62 1012.1
20260905225546 93 132 1.7 7.0 0.00 0.00 0.00 61 1012.1
20260905225046 92 70 2.6 7.0 0.00 0.00 0.00 62 1012.2
20260905224556 92 60 1.7 5.2 0.00 0.00 0.00 61 1012.1
20260905224045 92 79 1.7 7.0 0.00 0.00 0.00 61 1012.0
20260905223545 92 63 2.6 7.0 0.00 0.00 0.00 61 1011.9
20260905223059 92 56 3.5 7.0 0.00 0.00 0.00 61 1011.8
20260905222544 92 107 2.6 7.0 0.00 0.00 0.00 62 1011.7
20260905222045 92 134 3.5 7.0 0.00 0.00 0.00 61 1011.7
20260905221602 92 144 2.6 7.0 0.00 0.00 0.00 61 1011.7
20260905221045 92 75 1.7 7.0 0.00 0.00 0.00 61 1011.8
20260905220545 92 146 2.6 7.0 0.00 0.00 0.00 61 1011.8
20260905220058 92 70 2.6 7.0 0.00 0.00 0.00 60 1011.9
20260905215545 92 125 2.6 7.0 0.00 0.00 0.00 60 1011.9
20260905215047 92 75 3.5 8.7 0.00 0.00 0.00 60 1012.0
20260905214557 92 80 1.7 8.7 0.00 0.00 0.00 60 1012.0
20260905214044 92 75 3.5 8.7 0.00 0.00 0.00 60 1012.0
20260905213548 92 64 1.7 5.2 0.00 0.00 0.00 59 1012.1
20260905213105 91 103 2.6 6.1 0.00 0.00 0.00 61 1012.3
20260905212545 91 90 2.6 7.0 0.00 0.00 0.00 60 1012.4
20260905212044 91 60 3.5 7.0 0.00 0.00 0.00 59 1012.5
20260905211557 91 69 1.7 7.0 0.00 0.00 0.00 59 1012.7
20260905211045 91 126 2.6 7.0 0.00 0.00 0.00 59 1012.7
20260905210549 91 66 2.6 7.0 0.00 0.00 0.00 60 1012.6
20260905210059 91 62 2.6 7.0 0.00 0.00 0.00 60 1012.8
20260905205544 90 68 2.6 7.0 0.00 0.00 0.00 60 1012.9
20260905205044 90 60 3.5 7.0 0.00 0.00 0.00 59 1013.0
20260905204601 90 49 4.3 7.0 0.00 0.00 0.00 57 1012.9
20260905204047 90 54 2.6 7.0 0.00 0.00 0.00 58 1013.1
20260905203546 90 72 2.6 7.0 0.00 0.00 0.00 59 1013.3
20260905203101 90 64 3.5 8.7 0.00 0.00 0.00 58 1013.4
20260905202544 90 80 2.6 8.7 0.00 0.00 0.00 58 1013.5
20260905202043 90 49 3.5 7.8 0.00 0.00 0.00 57 1013.8
20260905201558 90 72 2.6 8.7 0.00 0.00 0.00 57 1014.0
20260905201042 90 113 1.7 9.6 0.00 0.00 0.00 58 1014.1
20260905200544 90 66 2.6 9.6 0.00 0.00 0.00 58 1014.2
20260905200106 90 70 5.2 9.6 0.00 0.00 0.00 58 1014.2
20260905195544 90 63 3.5 7.0 0.00 0.00 0.00 59 1014.2
20260905195042 90 53 2.6 7.0 0.00 0.00 0.00 62 1014.2
20260905194604 90 72 2.6 7.0 0.00 0.00 0.00 63 1014.2
20260905194044 90 70 3.5 11.3 0.00 0.00 0.00 61 1014.3
20260905193542 90 73 2.6 11.3 0.00 0.00 0.00 61 1014.3
20260905193109 89 131 5.2 10.4 0.00 0.00 0.00 61 1014.3
20260905192545 89 78 4.3 7.8 0.00 0.00 0.00 62 1014.4
20260905192041 90 120 2.6 7.8 0.00 0.00 0.00 64 1014.5
20260905191600 90 56 2.6 7.0 0.00 0.00 0.00 63 1014.6
20260905191041 89 65 3.5 7.0 0.00 0.00 0.00 63 1014.9
20260905190542 90 74 2.6 7.0 0.00 0.00 0.00 64 1015.0
20260905190059 89 61 1.7 7.0 0.00 0.00 0.00 65 1015.0
20260905185544 89 70 3.5 7.0 0.00 0.00 0.00 65 1015.3
20260905185046 89 54 2.6 10.4 0.00 0.00 0.00 64 1015.5
20260905184611 89 57 4.3 10.4 0.00 0.00 0.00 65 1015.6
20260905184045 89 99 2.6 8.7 0.00 0.00 0.00 65 1015.7
20260905183546 89 54 3.5 8.7 0.00 0.00 0.00 64 1015.8
20260905183102 88 68 3.5 8.7 0.00 0.00 0.00 66 1015.9
20260905182544 88 55 3.5 7.8 0.00 0.00 0.00 66 1015.9
20260905182045 88 55 2.6 5.2 0.00 0.00 0.00 67 1016.0
20260905181600 88 54 2.6 10.4 0.00 0.00 0.00 66 1016.0